Home   Weather   Fairfield   Past weeks
Flag for Grenada

Past Weather in Fairfield, Grenada — Yesterday and Last 2 Weeks

Now
77 °F

Light rain. Partly sunny.


Feels Like: 78 °F
Forecast: N/A
Wind: 8 mph from East

Location: Point Salines Airport

Current Time: Dec 11, 2019 at 4:47:52 pm

Latest Report: Dec 11, 2019 at 4:00 pm


Visibility: N/A

Pressure: 29.83 "Hg

Humidity: 89%

Dew Point: 73 °F

Location of FairfieldLocation

Past Weather in Fairfield — Graph

°F

Fairfield Temperature Yesterday

Maximum temperature yesterday: 88 °F (at 2:00 pm)
Minimum temperature yesterday: 79 °F (at 1:00 am)
Average temperature yesterday: 82 °F

High & Low Weather Summary for the Past Weeks

 TemperatureHumidityPressure
High88 °F (Nov 27, 12:00 pm)94% (Nov 29, 1:00 am)30.01 "Hg (Nov 29, 1:00 am)
Low75 °F (Nov 29, 3:00 am)62% (Dec 7, 11:00 am)29.80 "Hg (Nov 28, 3:00 pm)
Average82 °F81%29.89 "Hg
* Reported Nov 26 4:00 pm — Dec 11 3:00 pm, Fairfield. Weather by CustomWeather, © 2019

Note: Actual official high and low records may vary slightly from our data, if they occured in-between our weather recording intervals... More about our weather records

Fairfield Weather History for the Previous 24 Hours

Scroll right to see more
 ConditionsComfort  
Time TempWeatherWind HumidityBarometerVisibility
3:00 pm
Wed, Dec 11
79 °FRain showers. Partly sunny.18 mph89%29.86 "Hg3 mi
2:00 pm81 °FPartly sunny.25 mph79%29.86 "HgN/A
1:00 pm84 °FBroken clouds.14 mph79%29.86 "HgN/A
12:00 pm81 °FPartly sunny.6 mph84%29.92 "HgN/A
11:00 am75 °FLight rain. Partly sunny.12 mph78%29.92 "HgN/A
10:00 am75 °FSprinkles. Partly sunny.17 mph89%29.95 "HgN/A
9:00 am81 °FPartly sunny.7 mph84%29.92 "HgN/A
8:00 am77 °FPartly sunny.6 mph89%29.92 "HgN/A
7:00 am75 °FPartly sunny.7 mph89%29.89 "HgN/A
6:00 am77 °FLight rain. Partly cloudy.20 mph94%29.86 "HgN/A
5:00 am75 °FLight rain. Partly cloudy.9 mph94%29.86 "HgN/A
2:00 am81 °FPassing clouds.17 mph79%29.89 "HgN/A
1:00 am81 °FPassing clouds.9 mph79%29.89 "HgN/A
12:00 am81 °FPassing clouds.12 mph79%29.89 "HgN/A
11:00 pm
Tue, Dec 10
81 °FPassing clouds.12 mph84%29.92 "HgN/A
10:00 pm81 °FPassing clouds.12 mph79%29.92 "HgN/A
9:00 pm81 °FPassing clouds.12 mph79%29.92 "HgN/A
8:00 pm81 °FPassing clouds.8 mph79%29.89 "HgN/A
7:00 pm81 °FPassing clouds.12 mph79%29.86 "HgN/A
6:00 pm82 °FPassing clouds.13 mph74%29.86 "HgN/A
5:00 pm84 °FPassing clouds.14 mph70%29.86 "HgN/A
4:00 pm86 °FPassing clouds.21 mph66%29.83 "HgN/A
Weather by CustomWeather, © 2019

See weather overview

Advertising